Concordia, KS

2:20 AM CST on February 10, 2016 (GMT -0600)
Blosser Municipal

Weather History for KCNK - March, 2014

Change the Weather History Date:

Saturday, March 15, 2014

  Actual Average Record
Temperature  
Mean Temperature 53 °F 43 °F  
Max Temperature 74 °F 54 °F 85 °F (2003)
Min Temperature 32 °F 31 °F 3 °F (1912)
Degree Days  
Heating Degree Days 12 22  
Month to date heating degree days 440 372  
Since 1 July heating degree days 4922 4579  
Cooling Degree Days 0 0  
Month to date cooling degree days 0 0  
Year to date cooling degree days 0 0  
Growing Degree Days 4 (Base 50)    
Moisture  
Dew Point 23 °F    
Average Humidity 43    
Maximum Humidity 70    
Minimum Humidity 16    
Precipitation  
Precipitation 0.00 in 0.07 in 0.44 in (1960)
Month to date precipitation 0.09 0.79  
Year to date precipitation 1.28 2.16  
Snow  
Snow 0.00 in 0.10 in 5.90 in (1960)
Month to date snowfall 0.6 1.1  
Year to date snowfall 15.3 11.5  
Since 1 July snowfall 21.6 18.0  
Snow Depth 0.00 in    
Sea Level Pressure  
Sea Level Pressure 29.87 in    
Wind  
Wind Speed 19 mph (SW)    
Max Wind Speed 35 mph    
Max Gust Speed 46 mph    
Visibility 10 miles    
Events      
T = Trace of Precipitation, MM = Missing Value Source: NWS Daily Summary

Daily Weather History Graph

Daily Weather History Graph

Search for Another Location

Airport or City:

Trip Planner

Search our weather history database for the weather conditions in past years. The results will help you decide how hot, cold, wet, or windy it might be!

Date:

Astronomy

Mar. 15, 2014 Rise Set
Actual Time 7:41 AM CDT 7:37 PM CDT
Civil Twilight 7:15 AM CDT 8:04 PM CDT
Nautical Twilight 6:43 AM CDT 8:35 PM CDT
Astronomical Twilight 6:12 AM CDT 9:07 PM CDT
Moon 6:58 PM CDT (3/15) 6:54 AM CDT (3/15)
Length of Visible Light 12h 49m
Length of Day
11h 55m
Waxing Gibbous, 99% of the Moon is Illuminated
Mar 15
Waxing Gibbous
Mar 16
Full
Mar 23
Last Quarter
Mar 30
New
Apr 7
First Quarter

Hourly Weather History & Observations

Time (CDT) Temp. Windchill Dew Point Humidity Pressure Visibility Wind Dir Wind Speed Gust Speed Precip Events Conditions
12:55 AM 48.9 °F - 17.1 °F 28% 29.92 in 10.0 mi South 18.4 mph - N/A   Clear
1:55 AM 46.0 °F 39.0 °F 18.0 °F 33% 29.91 in 10.0 mi South 17.3 mph - N/A   Clear
2:55 AM 46.9 °F - 18.0 °F 32% 29.89 in 10.0 mi South 21.9 mph - N/A   Clear
3:55 AM 44.1 °F 36.2 °F 19.0 °F 37% 29.87 in 10.0 mi South 18.4 mph - N/A   Clear
4:55 AM 45.0 °F 36.9 °F 18.0 °F 34% 29.85 in 10.0 mi South 20.7 mph - N/A   Clear
5:55 AM 45.0 °F 37.1 °F 18.0 °F 34% 29.85 in 10.0 mi South 19.6 mph - N/A   Clear
6:55 AM 43.0 °F 35.4 °F 18.0 °F 37% 29.85 in 10.0 mi SSW 16.1 mph - N/A   Clear
7:55 AM 43.0 °F 36.4 °F 19.9 °F 40% 29.84 in 10.0 mi SSW 12.7 mph - N/A   Clear
8:55 AM 48.9 °F - 21.9 °F 35% 29.85 in 10.0 mi SSW 15.0 mph - N/A   Clear
9:55 AM 53.1 °F - 21.9 °F 30% 29.84 in 10.0 mi SW 18.4 mph - N/A   Clear
10:55 AM 57.0 °F - 25.0 °F 29% 29.84 in 10.0 mi SSW 16.1 mph - N/A   Clear
11:55 AM 63.0 °F - 25.0 °F 24% 29.82 in 10.0 mi SSW 21.9 mph 25.3 mph N/A   Clear
12:55 PM 68.0 °F - 26.1 °F 21% 29.80 in 10.0 mi SSW 19.6 mph 25.3 mph N/A   Clear
1:55 PM 71.1 °F - 25.0 °F 18% 29.78 in 10.0 mi WSW 13.8 mph 25.3 mph N/A   Clear
2:55 PM 73.0 °F - 24.1 °F 16% 29.74 in 10.0 mi WSW 10.4 mph 21.9 mph N/A   Clear
3:55 PM 73.0 °F - 24.1 °F 16% 29.74 in 10.0 mi SW 10.4 mph 20.7 mph N/A   Clear
4:55 PM 73.0 °F - 25.0 °F 17% 29.74 in 10.0 mi NW 12.7 mph - N/A   Clear
5:55 PM 68.0 °F - 25.0 °F 20% 29.77 in 10.0 mi NNW 27.6 mph 34.5 mph N/A   Clear
6:55 PM 57.0 °F - 28.9 °F 34% 29.86 in 10.0 mi North 25.3 mph 36.8 mph N/A   Clear
7:55 PM 50.0 °F - 27.0 °F 41% 29.94 in 10.0 mi North 23.0 mph 35.7 mph N/A   Clear
8:55 PM 45.0 °F 36.6 °F 27.0 °F 49% 29.99 in 10.0 mi North 21.9 mph 38.0 mph N/A   Clear
9:55 PM 39.9 °F 29.7 °F 27.0 °F 60% 30.06 in 10.0 mi North 23.0 mph 36.8 mph N/A   Clear
10:55 PM 35.1 °F 23.5 °F 26.1 °F 70% 30.09 in 10.0 mi NNE 21.9 mph 38.0 mph N/A   Clear
11:55 PM 33.1 °F 20.9 °F 25.0 °F 72% 30.14 in 10.0 mi North 21.9 mph 34.5 mph N/A   Clear